Location: Camaret
(48.2753°N, 4.5961°W)
Time: 00:24:38
(UTC+00:00)

USA 306 - Pass Details

Date: 29 October 2020
Orbit: 569 x 577 km, 54.0° (Epoch: 22 November)

Event Time Altitude Azimuth Distance (km) Brightness Sun altitude
Rises 17:53:59 0° 297° (WNW) 2,788 7.3 -8.9°
Reaches altitude 10° 17:56:15 10° 300° (WNW) 1,886 6.3 -9.3°
Maximum altitude 18:00:32 67° 24° (NNE) 627 2.9 -10.0°
Enters shadow 18:04:26 12° 106° (ESE) 1,738 4.8 -10.6°
